MBS International Airport
KMBS : now visible

Airfield :











YOU CAN JOIN US ON...

 
LOGIN :

Register | Disclaimer

   EN    FR    IT 

 









Legend :    VFR   Marginal VFR   IFR   Intensive IFR   Very Intensive IFR
Visi :
Ceiling :
>= 8 km
>= 3000ft
5 to 8 km
1000 to 3000 ft
1500m to 5 km
500 to 1000 ft
800 to 1500m
200 to 500 ft
< 800m
< 200 ft
Symbols :   Thunderstorms  Fog  Heavy snow  Heavy precipitations  Wind > 20 kt






- Airport Elevation : 668 ft
- IATA code : MBS


KMBS - MBS International

CURRENT METAR :
  • 080453Z AUTO 19005KT 10SM SCT055 23/17 A2995 RMK AO2 SLP136 T02330172 403440211

EXPIRED METARs :
  • 080353Z AUTO 25006KT 10SM FEW070 23/17 A2994 RMK AO2 SLP133 T02280167
  • 080253Z AUTO 23005KT 10SM CLR 24/16 A2992 RMK AO2 SLP128 T02390161 53004

TAF KMBS
Valid from the 08 at 00:00 until the 09 at 00:00 UTC


072320Z 0800/0824 20008KT P6SM SCT060
FM080100 27003KT P6SM FEW070
FM080900 VRB03KT P6SM SCT100
FM081600 VRB05KT P6SM SCT060 BKN100
KZOB FIR / North America



MET'MAP, your aeronautical weather chart ! - Copyright ORBIFLY December 2007 - Disclaimer

ORBIFLY MET'MAP TEAM :

Programming & Development : Alexandra Zaïnal
Concept & original design : Baudouin d'Aumeries
Assistance for programming : Marc-Olivier Méhu
Technical & hardware support : Manuel Goepfert

Contact : metmap@orbifly.com




SOURCES & CREDITS :

   NOAA       Earth
Advisory